Weather History for Northeast Philadelphia, PA

Change the Weather History Date:

Saturday, October 27, 2012

  Actual Average Record
Temperature  
Mean Temperature 60 °F -  
Max Temperature 64 °F 59 °F 75 °F (2010)
Min Temperature 57 °F 40 °F 30 °F (2006)
Degree Days  
Heating Degree Days 4    
Growing Degree Days 10 (Base 50)    
Moisture  
Dew Point 53 °F    
Average Humidity 74    
Maximum Humidity 88    
Minimum Humidity 65    
Precipitation  
Precipitation 0.00 in - - ()
Sea Level Pressure  
Sea Level Pressure 29.99 in    
Wind  
Wind Speed 7 mph (ENE)    
Max Wind Speed 13 mph    
Max Gust Speed -    
Visibility 10 miles    
Events      
Averages and records for this station are not official NWS values.
T = Trace of Precipitation, MM = Missing Value Source: NWS Daily Summary

Daily Weather History Graph

Daily Weather History Graph

Search for Another Location

Airport:

Trip Planner

Search our weather history database for the weather conditions in past years. The results will help you decide how hot, cold, wet, or windy it might be!

Date:

Astronomy

Oct. 27, 2012 Rise Set
Actual Time 7:24 AM EDT 6:03 PM EDT
Civil Twilight 6:56 AM EDT 6:30 PM EDT
Nautical Twilight 6:24 AM EDT 7:02 PM EDT
Astronomical Twilight 5:52 AM EDT 7:34 PM EDT
Moon 4:47 PM EDT (10/27) 5:16 AM EDT (10/27)
Length of Visible Light 11h 34m
Length of Day
10h 38m
Waxing Gibbous, 96% of the Moon is Illuminated
Oct 27
Waxing Gibbous
Oct 29
Full
Nov 6
Last Quarter
Nov 13
New
Nov 20
First Quarter

Hourly Weather History & Observations

Time (EDT) Temp. Dew Point Humidity Pressure Visibility Wind Dir Wind Speed Gust Speed Precip Events Conditions
12:54 AM 60.8 °F 57.2 °F 88% 30.10 in 10.0 mi NE 4.6 mph - N/A   Overcast
1:54 AM 62.1 °F 57.0 °F 84% 30.08 in 10.0 mi ENE 4.6 mph - N/A   Overcast
2:54 AM 61.0 °F 57.0 °F 87% 30.06 in 10.0 mi ENE 5.8 mph - N/A   Overcast
3:54 AM 61.0 °F 55.9 °F 83% 30.04 in 10.0 mi ENE 5.8 mph - N/A   Overcast
4:54 AM 60.1 °F 55.9 °F 86% 30.03 in 10.0 mi ENE 4.6 mph - N/A   Overcast
5:54 AM 60.1 °F 54.0 °F 80% 30.03 in 10.0 mi NE 5.8 mph - N/A   Overcast
6:54 AM 60.1 °F 52.0 °F 75% 30.04 in 10.0 mi ENE 5.8 mph - N/A   Overcast
7:54 AM 60.1 °F 52.0 °F 75% 30.03 in 10.0 mi ENE 6.9 mph - N/A   Overcast
8:42 AM 60.8 °F 53.6 °F 77% 30.03 in 10.0 mi East 6.9 mph - N/A   Overcast
8:54 AM 61.0 °F 53.1 °F 75% 30.03 in 10.0 mi ENE 8.1 mph - N/A   Overcast
9:54 AM 62.6 °F 53.6 °F 72% 30.03 in 10.0 mi ENE 10.4 mph - N/A   Overcast
10:54 AM 63.0 °F 54.0 °F 72% 30.03 in 10.0 mi ENE 6.9 mph - N/A   Overcast
11:54 AM 63.0 °F 53.1 °F 70% 30.02 in 10.0 mi East 8.1 mph - N/A   Overcast
12:22 PM 62.6 °F 53.6 °F 72% 30.01 in 10.0 mi ENE 6.9 mph - N/A   Overcast
12:41 PM 64.4 °F 53.6 °F 68% 30.00 in 10.0 mi East 9.2 mph - N/A   Overcast
12:54 PM 64.9 °F 53.1 °F 65% 29.99 in 10.0 mi ENE 9.2 mph - N/A   Overcast
1:54 PM 64.9 °F 53.1 °F 65% 29.97 in 10.0 mi East 11.5 mph - N/A   Mostly Cloudy
2:54 PM 64.9 °F 53.1 °F 65% 29.95 in 10.0 mi ENE 11.5 mph - N/A   Overcast
3:03 PM 64.4 °F 53.6 °F 68% 29.95 in 10.0 mi ENE 8.1 mph - N/A   Mostly Cloudy
3:54 PM 64.0 °F 52.0 °F 65% 29.94 in 10.0 mi East 12.7 mph - N/A   Mostly Cloudy
4:54 PM 63.0 °F 51.1 °F 65% 29.94 in 10.0 mi ENE 12.7 mph - N/A   Partly Cloudy
5:54 PM 61.0 °F 50.0 °F 67% 29.95 in 10.0 mi East 6.9 mph - N/A   Clear
6:54 PM 60.1 °F 48.9 °F 67% 29.95 in 10.0 mi ENE 6.9 mph - N/A   Clear
7:54 PM 59.0 °F 48.9 °F 69% 29.94 in 10.0 mi NE 10.4 mph - N/A   Clear
8:54 PM 57.9 °F 48.9 °F 72% 29.93 in 10.0 mi NE 8.1 mph - N/A   Clear
9:54 PM 57.0 °F 50.0 °F 77% 29.92 in 10.0 mi NE 8.1 mph - N/A   Clear
10:54 PM 57.0 °F 51.1 °F 81% 29.91 in 10.0 mi NNE 8.1 mph - N/A   Clear
11:54 PM 57.2 °F 51.8 °F 82% 29.90 in 10.0 mi NE 10.4 mph - N/A   Clear